• In United Kingdom
  • List of Countries
  • For 7 days
  • Water Temperature
  • Satellite Maps
  • Weather Map
  • Weather Widgets
  • user-avatar
    Login

    Hourly Weather Rozhnyatov

    Today, 15 December, Friday

    Time Temperature Precipitation Wind Pressure Humidity
    00:00 +1°C° 0 mm 3 mps 718 mmHg 82%
    01:00 +1°C° 0 mm 3 mps 718 mmHg 84%
    02:00 +1°C° 0 mm 2 mps 717 mmHg 87%
    03:00 +2°C° 0 mm 2 mps 717 mmHg 88%
    04:00 +2°C° 0 mm 2 mps 717 mmHg 89%
    05:00 +2°C° 0 mm 2 mps 717 mmHg 90%
    06:00 +2°C° 0 mm 2 mps 717 mmHg 90%
    07:00 +2°C° 0 mm 2 mps 716 mmHg 90%
    08:00 +2°C° 0 mm 2 mps 716 mmHg 90%
    09:00 +2°C° 0.2 mm 3 mps 716 mmHg 88%
    10:00 +3°C° 0.2 mm 3 mps 715 mmHg 86%
    11:00 +4°C° 0.2 mm 3 mps 715 mmHg 84%
    12:00 +4°C° 0.7 mm 3 mps 715 mmHg 84%
    13:00 +5°C° 0.7 mm 4 mps 714 mmHg 83%
    14:00 +5°C° 0.7 mm 4 mps 714 mmHg 83%
    15:00 +5°C° 0.3 mm 4 mps 714 mmHg 84%
    16:00 +5°C° 0.3 mm 4 mps 714 mmHg 84%
    17:00 +5°C° 0.3 mm 4 mps 714 mmHg 85%
    18:00 +5°C° 0.2 mm 4 mps 715 mmHg 85%
    19:00 +5°C° 0.2 mm 4 mps 715 mmHg 86%
    20:00 +5°C° 0.2 mm 4 mps 715 mmHg 87%
    21:00 +5°C° 0.1 mm 3 mps 716 mmHg 88%
    22:00 +5°C° 0.1 mm 2 mps 716 mmHg 89%
    23:00 +6°C° 0.1 mm 1 mps 716 mmHg 91%

    Tomorrow, 16 December, Saturday

    Time Temperature Precipitation Wind Pressure Humidity
    00:00 +5°C° 0.6 mm 1 mps 715 mmHg 92%
    01:00 +5°C° 0.6 mm 1 mps 715 mmHg 93%
    02:00 +5°C° 0.6 mm 1 mps 714 mmHg 95%
    03:00 +5°C° 2 mm 1 mps 714 mmHg 95%
    04:00 +4°C° 2 mm 2 mps 713 mmHg 95%
    05:00 +3°C° 2 mm 2 mps 712 mmHg 95%
    06:00 +3°C° 2.1 mm 2 mps 712 mmHg 95%
    07:00 +3°C° 2.1 mm 2 mps 711 mmHg 96%
    08:00 +3°C° 2.1 mm 2 mps 711 mmHg 96%
    09:00 +3°C° 1.1 mm 2 mps 711 mmHg 95%
    10:00 +2°C° 1.1 mm 3 mps 711 mmHg 95%
    11:00 +1°C° 1.1 mm 3 mps 711 mmHg 94%
    12:00 +1°C° 0.4 mm 3 mps 712 mmHg 94%
    13:00 +1°C° 0.4 mm 3 mps 713 mmHg 94%
    14:00 +1°C° 0.4 mm 3 mps 713 mmHg 93%
    15:00 +1°C° 0.3 mm 3 mps 714 mmHg 94%
    16:00 +1°C° 0.3 mm 3 mps 715 mmHg 94%
    17:00 0°C° 0.3 mm 3 mps 716 mmHg 94%
    18:00 0°C° 0.4 mm 3 mps 717 mmHg 94%
    19:00 0°C° 0.4 mm 3 mps 717 mmHg 94%
    20:00 +1°C° 0.4 mm 2 mps 718 mmHg 94%
    21:00 +1°C° 0.2 mm 2 mps 719 mmHg 94%
    22:00 +1°C° 0.2 mm 2 mps 720 mmHg 94%
    23:00 -1°C° 0.2 mm 2 mps 721 mmHg 94%

    Day after tomorrow, 17 December, Sunday

    Time Temperature Precipitation Wind Pressure Humidity
    00:00 -1°C° 0.1 mm 2 mps 721 mmHg 94%
    01:00 -1°C° 0.1 mm 2 mps 721 mmHg 93%
    02:00 -1°C° 0.1 mm 2 mps 722 mmHg 93%
    03:00 -2°C° 0 mm 2 mps 722 mmHg 93%
    04:00 -3°C° 0 mm 2 mps 722 mmHg 93%
    05:00 -4°C° 0 mm 2 mps 722 mmHg 94%
    06:00 -4°C° 0 mm 2 mps 723 mmHg 93%
    07:00 -4°C° 0 mm 2 mps 723 mmHg 92%
    08:00 -4°C° 0 mm 2 mps 724 mmHg 91%
    09:00 -3°C° 0 mm 2 mps 724 mmHg 89%
    10:00 -2°C° 0 mm 2 mps 724 mmHg 86%
    11:00 -1°C° 0 mm 2 mps 725 mmHg 84%
    12:00 -1°C° 0 mm 2 mps 725 mmHg 83%
    13:00 -1°C° 0 mm 2 mps 725 mmHg 83%
    14:00 +1°C° 0 mm 2 mps 725 mmHg 82%
    15:00 -1°C° 0 mm 2 mps 725 mmHg 85%
    16:00 -2°C° 0 mm 2 mps 726 mmHg 87%
    17:00 -1°C° 0 mm 1 mps 726 mmHg 90%
    18:00 -1°C° 0 mm 1 mps 726 mmHg 90%
    19:00 -2°C° 0 mm 1 mps 727 mmHg 90%
    20:00 -2°C° 0 mm 1 mps 727 mmHg 90%
    21:00 -2°C° 0 mm 1 mps 727 mmHg 90%
    22:00 -4°C° 0 mm 2 mps 727 mmHg 89%
    23:00 -4°C° 0 mm 2 mps 728 mmHg 89%

    18 December, Monday

    Time Temperature Precipitation Wind Pressure Humidity
    00:00 -5°C° 0 mm 2 mps 728 mmHg 89%
    01:00 -5°C° 0 mm 2 mps 728 mmHg 88%
    02:00 -5°C° 0 mm 2 mps 728 mmHg 88%
    03:00 -5°C° 0 mm 2 mps 728 mmHg 89%
    04:00 -5°C° 0 mm 2 mps 728 mmHg 89%
    05:00 -5°C° 0 mm 2 mps 728 mmHg 89%
    06:00 -4°C° 0.1 mm 2 mps 728 mmHg 89%
    07:00 -2°C° 0.1 mm 1 mps 729 mmHg 90%
    08:00 -2°C° 0.1 mm 1 mps 729 mmHg 90%
    09:00 -4°C° 0.1 mm 2 mps 729 mmHg 87%
    10:00 -3°C° 0.1 mm 2 mps 729 mmHg 85%
    11:00 -2°C° 0.1 mm 2 mps 729 mmHg 82%
    12:00 -2°C° 0.1 mm 2 mps 729 mmHg 81%
    13:00 -2°C° 0.1 mm 2 mps 729 mmHg 79%
    14:00 -1°C° 0.1 mm 2 mps 729 mmHg 77%
    15:00 -2°C° 0.1 mm 2 mps 729 mmHg 81%
    16:00 -3°C° 0.1 mm 2 mps 729 mmHg 84%
    17:00 -1°C° 0.1 mm 1 mps 729 mmHg 87%
    18:00 -2°C° 0 mm 1 mps 729 mmHg 88%
    19:00 -2°C° 0 mm 1 mps 730 mmHg 89%
    20:00 -3°C° 0 mm 1 mps 730 mmHg 89%
    21:00 -3°C° 0 mm 1 mps 730 mmHg 89%
    22:00 -3°C° 0 mm 1 mps 731 mmHg 89%
    23:00 -3°C° 0 mm 1 mps 731 mmHg 89%

    19 December, Tuesday

    Time Temperature Precipitation Wind Pressure Humidity
    00:00 -3°C° 0.1 mm 1 mps 731 mmHg 88%
    01:00 -3°C° 0.1 mm 1 mps 731 mmHg 88%
    02:00 -3°C° 0.1 mm 1 mps 731 mmHg 88%
    03:00 -2°C° 0.1 mm 1 mps 731 mmHg 89%
    04:00 -2°C° 0.1 mm 1 mps 732 mmHg 89%
    05:00 -2°C° 0.1 mm 1 mps 732 mmHg 90%
    06:00 -2°C° 0.1 mm 1 mps 732 mmHg 91%
    07:00 -3°C° 0.1 mm 1 mps 733 mmHg 92%
    08:00 -3°C° 0.1 mm 1 mps 733 mmHg 93%
    09:00 -3°C° 0 mm 1 mps 734 mmHg 90%
    10:00 -2°C° 0 mm 1 mps 734 mmHg 88%
    11:00 -4°C° 0 mm 2 mps 735 mmHg 85%
    12:00 -3°C° 0 mm 2 mps 735 mmHg 84%
    13:00 -3°C° 0 mm 2 mps 735 mmHg 83%
    14:00 -3°C° 0 mm 2 mps 735 mmHg 82%
    15:00 -4°C° 0 mm 2 mps 735 mmHg 85%
    16:00 -4°C° 0 mm 2 mps 736 mmHg 89%
    17:00 -5°C° 0 mm 2 mps 736 mmHg 92%
    18:00 -5°C° 0 mm 2 mps 736 mmHg 92%
    19:00 -6°C° 0 mm 2 mps 737 mmHg 91%
    20:00 -6°C° 0 mm 2 mps 737 mmHg 91%
    21:00 -6°C° 0 mm 2 mps 737 mmHg 91%
    22:00 -6°C° 0 mm 2 mps 737 mmHg 91%
    23:00 -6°C° 0 mm 2 mps 737 mmHg 91%

    20 December, Wednesday

    Time Temperature Precipitation Wind Pressure Humidity
    00:00 -6°C° 0 mm 2 mps 737 mmHg 90%
    01:00 -7°C° 0 mm 2 mps 737 mmHg 90%
    02:00 -7°C° 0 mm 2 mps 736 mmHg 89%
    03:00 -7°C° 0 mm 2 mps 736 mmHg 88%
    04:00 -7°C° 0 mm 2 mps 736 mmHg 87%
    05:00 -7°C° 0 mm 2 mps 736 mmHg 85%
    06:00 -7°C° 0 mm 2 mps 736 mmHg 85%
    07:00 -7°C° 0 mm 2 mps 735 mmHg 84%
    08:00 -7°C° 0 mm 2 mps 735 mmHg 84%
    09:00 -6°C° 0.1 mm 2 mps 735 mmHg 82%
    10:00 -5°C° 0.1 mm 2 mps 735 mmHg 81%
    11:00 -4°C° 0.1 mm 2 mps 735 mmHg 79%
    12:00 -3°C° 0.1 mm 2 mps 735 mmHg 79%
    13:00 -3°C° 0.1 mm 2 mps 735 mmHg 80%
    14:00 -2°C° 0.1 mm 2 mps 735 mmHg 80%
    15:00 -3°C° 0.1 mm 2 mps 735 mmHg 82%
    16:00 -3°C° 0.1 mm 2 mps 735 mmHg 85%
    17:00 -4°C° 0.1 mm 2 mps 735 mmHg 88%
    18:00 -4°C° 0 mm 2 mps 735 mmHg 88%
    19:00 -4°C° 0 mm 2 mps 735 mmHg 88%
    20:00 -4°C° 0 mm 2 mps 735 mmHg 88%
    21:00 -4°C° 0 mm 2 mps 735 mmHg 88%
    22:00 -4°C° 0 mm 2 mps 735 mmHg 88%
    23:00 -4°C° 0 mm 2 mps 735 mmHg 88%
    Show more